{"data":{"norad_id":55817,"epoch":"2026-09-19T17:58:22.125216Z","epoch_age_seconds":86862,"freshness":"FRESH","line1":"1 55817U 23029X   26262.74886719  .00000063  00000+0  12275-3 0  9998","line2":"2 55817  87.9146 255.5678 0002188  98.8288 261.3093 13.20769912173637","mean_motion":13.20769912,"eccentricity":0.0002188,"inclination_deg":87.9146,"raan_deg":255.5678,"arg_perigee_deg":98.8288,"mean_anomaly_deg":261.3093,"bstar":0.00012275,"rev_number":17363,"period_min":109.02731709109,"perigee_km":1180.1265165463,"apogee_km":1183.4347364997,"semimajor_km":7559.917626523,"source":"CELESTRAK","updated_at":"2026-09-20T09:00:44.763314Z"}}